Radiation Dose at Monitoring Post of Fukushima Daini Nuclear Power Station
Date,Time,MP-1(microSv/h),MP-2(microSv/h),MP-3(microSv/h),MP-4(microSv/h),MP-5(microSv/h),MP-6(microSv/h),MP-7(microSv/h),Wind Direction,Wind Velocity(m/s),Rain
2024/02/13,00:00,0.148,0.132,0.209,0.198,0.207,0.118,0.076,south-southeast,0.6,No
2024/02/13,00:10,0.148,0.132,0.210,0.199,0.207,0.118,0.077,southeast,1.3,No
2024/02/13,00:20,0.148,0.132,0.211,0.198,0.207,0.118,0.077,southeast,1.6,No
2024/02/13,00:30,0.148,0.132,0.210,0.199,0.205,0.119,0.077,south,2.3,No
2024/02/13,00:40,0.148,0.132,0.209,0.200,0.206,0.119,0.077,south-southwest,2.9,No
2024/02/13,00:50,0.148,0.132,0.210,0.198,0.206,0.118,0.077,south-southwest,3.5,No
2024/02/13,01:00,0.149,0.133,0.210,0.200,0.207,0.118,0.076,southwest,3.9,No
2024/02/13,01:10,0.148,0.132,0.212,0.199,0.208,0.118,0.077,south-southwest,3.3,No
2024/02/13,01:20,0.148,0.132,0.210,0.199,0.206,0.119,0.077,south-southwest,3.2,No
2024/02/13,01:30,0.148,0.133,0.212,0.198,0.206,0.117,0.076,southwest,3.2,No
2024/02/13,01:40,0.148,0.132,0.210,0.199,0.206,0.118,0.077,southwest,2.6,No
2024/02/13,01:50,0.148,0.132,0.209,0.199,0.207,0.117,0.077,southwest,3.5,No
2024/02/13,02:00,0.147,0.132,0.210,0.199,0.206,0.118,0.076,west-southwest,4.6,No
2024/02/13,02:10,0.148,0.133,0.211,0.198,0.206,0.119,0.076,west-southwest,4.9,No
2024/02/13,02:20,0.149,0.133,0.210,0.199,0.206,0.118,0.077,west-southwest,4.2,No
2024/02/13,02:30,0.149,0.133,0.209,0.198,0.205,0.117,0.077,west-southwest,4.4,No
2024/02/13,02:40,0.147,0.132,0.209,0.199,0.207,0.118,0.076,west-southwest,4.4,No
2024/02/13,02:50,0.147,0.132,0.210,0.198,0.206,0.118,0.077,west-southwest,4.0,No
2024/02/13,03:00,0.147,0.132,0.209,0.199,0.207,0.118,0.077,west-southwest,3.0,No
2024/02/13,03:10,0.148,0.132,0.210,0.198,0.206,0.118,0.077,west-southwest,4.6,No
2024/02/13,03:20,0.147,0.133,0.209,0.199,0.206,0.118,0.077,southwest,3.6,No
2024/02/13,03:30,0.148,0.133,0.209,0.198,0.206,0.118,0.077,southwest,3.4,No
2024/02/13,03:40,0.148,0.132,0.209,0.198,0.205,0.118,0.077,west-southwest,2.6,No
2024/02/13,03:50,0.148,0.132,0.209,0.199,0.206,0.118,0.077,west-southwest,2.9,No
2024/02/13,04:00,0.147,0.132,0.210,0.198,0.205,0.118,0.076,southwest,1.8,No
2024/02/13,04:10,0.148,0.132,0.210,0.199,0.206,0.118,0.076,southwest,1.9,No
2024/02/13,04:20,0.148,0.132,0.210,0.198,0.206,0.118,0.077,southwest,2.8,No
2024/02/13,04:30,0.148,0.133,0.210,0.198,0.206,0.118,0.076,south-southwest,2.2,No
2024/02/13,04:40,0.147,0.132,0.209,0.199,0.207,0.118,0.076,south-southwest,2.5,No
2024/02/13,04:50,0.148,0.133,0.209,0.199,0.206,0.118,0.077,southwest,2.6,No
2024/02/13,05:00,0.148,0.132,0.210,0.199,0.206,0.118,0.076,south-southwest,2.3,No
2024/02/13,05:10,0.147,0.132,0.208,0.198,0.206,0.117,0.077,south-southwest,2.3,No
2024/02/13,05:20,0.149,0.131,0.209,0.198,0.206,0.118,0.076,south-southwest,3.0,No
2024/02/13,05:30,0.148,0.132,0.209,0.199,0.205,0.116,0.076,south-southwest,3.2,No
2024/02/13,05:40,0.147,0.132,0.210,0.198,0.206,0.118,0.077,south-southwest,2.9,No
2024/02/13,05:50,0.147,0.133,0.209,0.198,0.207,0.118,0.077,south-southwest,3.0,No
2024/02/13,06:00,0.148,0.132,0.210,0.199,0.206,0.117,0.076,south-southwest,3.2,No
2024/02/13,06:10,0.148,0.132,0.209,0.199,0.205,0.118,0.076,south-southwest,3.1,No
2024/02/13,06:20,0.148,0.132,0.210,0.199,0.208,0.117,0.076,south-southwest,2.3,No
2024/02/13,06:30,0.148,0.133,0.210,0.198,0.205,0.117,0.077,south-southwest,3.0,No
2024/02/13,06:40,0.149,0.133,0.209,0.198,0.206,0.118,0.077,south-southwest,3.7,No
2024/02/13,06:50,0.147,0.132,0.209,0.199,0.206,0.118,0.077,southwest,3.4,No
2024/02/13,07:00,0.148,0.133,0.211,0.199,0.207,0.119,0.077,southwest,3.0,No
2024/02/13,07:10,0.148,0.131,0.210,0.198,0.206,0.118,0.076,southwest,2.8,No
2024/02/13,07:20,0.148,0.132,0.210,0.198,0.206,0.118,0.077,southwest,2.1,No
2024/02/13,07:30,0.148,0.132,0.210,0.200,0.206,0.117,0.077,southwest,1.7,No
2024/02/13,07:40,0.148,0.131,0.211,0.199,0.206,0.119,0.077,south-southwest,1.5,No
2024/02/13,07:50,0.147,0.132,0.209,0.198,0.206,0.119,0.077,southwest,2.3,No
2024/02/13,08:00,0.148,0.132,0.210,0.199,0.208,0.118,0.076,west-southwest,2.5,No
2024/02/13,08:10,0.148,0.132,0.208,0.198,0.207,0.118,0.076,west,2.6,No
2024/02/13,08:20,0.148,0.133,0.210,0.198,0.205,0.118,0.076,west,3.5,No
2024/02/13,08:30,0.148,0.132,0.209,0.198,0.207,0.118,0.076,west-southwest,2.9,No
2024/02/13,08:40,0.148,0.132,0.210,0.199,0.207,0.119,0.077,southwest,3.1,No
2024/02/13,08:50,0.148,0.132,0.210,0.199,0.206,0.118,0.076,southwest,1.5,No
2024/02/13,09:00,0.148,0.132,0.209,0.198,0.205,0.118,0.076,south,1.6,No
2024/02/13,09:10,0.148,0.133,0.208,0.197,0.207,0.118,0.077,south-southeast,2.0,No
2024/02/13,09:20,0.148,0.132,0.209,0.197,0.206,0.118,0.076,southeast,2.8,No
2024/02/13,09:30,0.148,0.131,0.209,0.199,0.206,0.119,0.077,south-southeast,3.0,No
2024/02/13,09:40,0.148,0.132,0.209,0.197,0.207,0.118,0.076,south-southeast,2.0,No
2024/02/13,09:50,0.147,0.131,0.209,0.198,0.205,0.118,0.077,south-southeast,2.4,No
2024/02/13,10:00,0.148,0.132,0.209,0.197,0.206,0.118,0.076,south-southeast,2.6,No
2024/02/13,10:10,0.147,0.132,0.210,0.199,0.205,0.119,0.076,southeast,3.5,No
2024/02/13,10:20,0.147,0.131,0.209,0.197,0.206,0.117,0.076,south-southeast,3.6,No
2024/02/13,10:30,0.147,0.131,0.208,0.199,0.206,0.119,0.076,south-southeast,3.3,No
2024/02/13,10:40,0.147,0.132,0.209,0.199,0.207,0.118,0.076,south-southeast,4.8,No
2024/02/13,10:50,0.147,0.132,0.209,0.198,0.205,0.118,0.076,south-southeast,4.9,No
2024/02/13,11:00,0.147,0.132,0.209,0.199,0.207,0.118,0.076,southeast,5.5,No
2024/02/13,11:10,0.146,0.132,0.208,0.199,0.206,0.118,0.077,southeast,6.2,No
2024/02/13,11:20,0.148,0.132,0.209,0.197,0.208,0.118,0.077,south-southeast,5.2,No
2024/02/13,11:30,0.147,0.132,0.208,0.199,0.205,0.118,0.076,south-southeast,5.6,No
2024/02/13,11:40,0.148,0.133,0.209,0.199,0.207,0.118,0.076,south-southeast,6.1,No
2024/02/13,11:50,0.148,0.132,0.209,0.199,0.205,0.118,0.076,south-southeast,5.0,No
2024/02/13,12:00,0.147,0.133,0.210,0.199,0.207,0.117,0.076,south-southeast,6.5,No
2024/02/13,12:10,0.147,0.132,0.209,0.199,0.208,0.118,0.077,south-southeast,5.8,No
2024/02/13,12:20,0.146,0.132,0.208,0.199,0.204,0.118,0.076,south-southeast,5.6,No
2024/02/13,12:30,0.149,0.132,0.210,0.198,0.207,0.119,0.076,southeast,5.7,No
2024/02/13,12:40,0.147,0.133,0.208,0.197,0.205,0.117,0.077,south-southeast,5.6,No
2024/02/13,12:50,0.146,0.131,0.210,0.200,0.206,0.118,0.077,southeast,5.8,No
2024/02/13,13:00,0.147,0.132,0.208,0.198,0.206,0.117,0.076,south-southeast,6.2,No
2024/02/13,13:10,0.146,0.131,0.209,0.199,0.204,0.119,0.077,south-southeast,6.0,No
2024/02/13,13:20,0.147,0.132,0.209,0.199,0.207,0.117,0.077,south-southeast,6.1,No
2024/02/13,13:30,0.148,0.132,0.209,0.198,0.205,0.118,0.077,southeast,6.3,No
2024/02/13,13:40,0.147,0.132,0.209,0.198,0.208,0.118,0.076,east-southeast,5.5,No
2024/02/13,13:50,0.147,0.132,0.210,0.198,0.207,0.118,0.076,east-southeast,4.3,No
2024/02/13,14:00,0.148,0.132,0.211,0.199,0.207,0.119,0.077,east-southeast,4.4,No
2024/02/13,14:10,0.146,0.133,0.209,0.198,0.206,0.118,0.076,southeast,4.6,No
2024/02/13,14:20,0.147,0.132,0.209,0.199,0.206,0.119,0.077,southeast,5.4,No
2024/02/13,14:30,0.149,0.132,0.209,0.199,0.206,0.118,0.077,southeast,4.6,No
2024/02/13,14:40,0.148,0.132,0.210,0.198,0.206,0.119,0.077,southeast,4.0,No
2024/02/13,14:50,0.149,0.133,0.210,0.199,0.209,0.118,0.077,southeast,3.7,No
2024/02/13,15:00,0.147,0.131,0.211,0.200,0.207,0.119,0.077,south-southeast,3.7,No
2024/02/13,15:10,0.149,0.132,0.210,0.199,0.208,0.118,0.077,south-southeast,2.6,No
2024/02/13,15:20,0.148,0.132,0.210,0.200,0.206,0.118,0.076,southeast,2.9,No
2024/02/13,15:30,0.148,0.133,0.210,0.198,0.208,0.119,0.077,southeast,2.4,No
2024/02/13,15:40,0.147,0.132,0.210,0.200,0.207,0.118,0.077,southeast,1.9,No
2024/02/13,15:50,0.147,0.132,0.210,0.199,0.207,0.119,0.076,south-southeast,1.1,No
2024/02/13,16:00,0.148,0.134,0.210,0.200,0.207,0.118,0.078,east,1.2,No
2024/02/13,16:10,0.147,0.133,0.211,0.200,0.208,0.118,0.076,east-southeast,1.7,No
2024/02/13,16:20,0.149,0.133,0.210,0.199,0.207,0.118,0.077,southeast,1.3,No
2024/02/13,16:30,0.148,0.132,0.210,0.200,0.208,0.118,0.076,south-southeast,1.1,No
2024/02/13,16:40,0.148,0.133,0.210,0.200,0.207,0.119,0.077,southeast,0.7,No
2024/02/13,16:50,0.148,0.131,0.210,0.199,0.206,0.119,0.077,-,CALM,No
2024/02/13,17:00,0.148,0.134,0.210,0.200,0.208,0.118,0.077,-,CALM,No
2024/02/13,17:10,0.148,0.132,0.211,0.199,0.208,0.118,0.076,-,CALM,No
2024/02/13,17:20,0.148,0.132,0.210,0.200,0.208,0.119,0.077,north-northwest,0.9,No
2024/02/13,17:30,0.148,0.131,0.211,0.199,0.208,0.118,0.077,west-northwest,2.0,No
2024/02/13,17:40,0.148,0.133,0.210,0.199,0.206,0.118,0.077,west-northwest,4.1,No
2024/02/13,17:50,0.149,0.132,0.209,0.200,0.208,0.119,0.076,west-northwest,3.7,No
2024/02/13,18:00,0.148,0.132,0.210,0.201,0.206,0.119,0.076,west,3.2,No
2024/02/13,18:10,0.148,0.134,0.210,0.199,0.207,0.119,0.077,west-northwest,2.1,No
2024/02/13,18:20,0.148,0.133,0.211,0.199,0.207,0.119,0.076,west,5.2,No
2024/02/13,18:30,0.148,0.132,0.210,0.200,0.207,0.118,0.077,west,3.2,No
2024/02/13,18:40,0.147,0.133,0.210,0.200,0.206,0.119,0.077,west-northwest,1.2,No
2024/02/13,18:50,0.148,0.133,0.210,0.199,0.207,0.119,0.077,west,1.0,No
2024/02/13,19:00,0.149,0.132,0.210,0.199,0.207,0.119,0.076,west-northwest,2.5,No
2024/02/13,19:10,0.149,0.132,0.210,0.199,0.206,0.119,0.077,west-northwest,2.0,No
2024/02/13,19:20,0.148,0.134,0.211,0.200,0.207,0.119,0.076,northwest,1.5,No
2024/02/13,19:30,0.149,0.133,0.211,0.199,0.207,0.118,0.077,west-northwest,2.8,No
2024/02/13,19:40,0.149,0.133,0.211,0.199,0.206,0.119,0.077,west,3.5,No
2024/02/13,19:50,0.147,0.133,0.210,0.200,0.208,0.119,0.077,west,3.0,No
2024/02/13,20:00,0.147,0.133,0.211,0.200,0.205,0.117,0.077,west,2.6,No
2024/02/13,20:10,0.148,0.134,0.211,0.198,0.207,0.119,0.077,west-northwest,1.5,No
2024/02/13,20:20,0.148,0.133,0.211,0.199,0.207,0.118,0.077,north-northwest,0.8,No
2024/02/13,20:30,0.148,0.131,0.210,0.200,0.207,0.118,0.077,northwest,1.3,No
2024/02/13,20:40,0.149,0.133,0.211,0.200,0.207,0.118,0.076,north-northwest,1.5,No
2024/02/13,20:50,0.148,0.133,0.209,0.200,0.207,0.118,0.076,northwest,2.1,No
2024/02/13,21:00,0.149,0.133,0.210,0.200,0.207,0.118,0.076,west-northwest,1.3,No
2024/02/13,21:10,0.148,0.133,0.210,0.199,0.207,0.119,0.077,west-southwest,2.1,No
2024/02/13,21:20,0.148,0.132,0.209,0.199,0.207,0.119,0.076,west-northwest,1.7,No
2024/02/13,21:30,0.149,0.133,0.210,0.199,0.205,0.118,0.077,west,2.5,No
2024/02/13,21:40,0.148,0.132,0.210,0.199,0.206,0.119,0.076,west,2.8,No
2024/02/13,21:50,0.148,0.131,0.210,0.200,0.207,0.118,0.077,west,1.8,No
2024/02/13,22:00,0.148,0.133,0.210,0.198,0.206,0.118,0.077,west-southwest,1.4,No
2024/02/13,22:10,0.148,0.133,0.210,0.198,0.206,0.118,0.077,south-southwest,0.9,No
2024/02/13,22:20,0.149,0.132,0.210,0.200,0.205,0.118,0.076,-,CALM,No
2024/02/13,22:30,0.149,0.132,0.210,0.200,0.207,0.117,0.077,south-southeast,0.7,No
2024/02/13,22:40,0.148,0.132,0.210,0.199,0.207,0.117,0.077,south-southeast,1.7,No
2024/02/13,22:50,0.149,0.132,0.211,0.199,0.206,0.118,0.076,southeast,0.9,No
2024/02/13,23:00,0.149,0.131,0.210,0.199,0.205,0.118,0.077,-,CALM,No
2024/02/13,23:10,0.148,0.133,0.210,0.200,0.207,0.118,0.077,east-southeast,0.7,No
2024/02/13,23:20,0.147,0.133,0.210,0.201,0.207,0.118,0.078,southeast,0.9,No
2024/02/13,23:30,0.147,0.133,0.211,0.199,0.206,0.118,0.076,west-northwest,4.1,No
2024/02/13,23:40,0.148,0.133,0.211,0.199,0.207,0.118,0.077,west,5.1,No
2024/02/13,23:50,0.148,0.132,0.210,0.199,0.207,0.118,0.077,west-northwest,7.0,No
